AirNav   Air Wisconsin Up To $57,000 Bonus
 
 1291 users online  

X49 South Lakeland Airport
Lakeland, Florida, USA

GOING TO LAKELAND?


FAA INFORMATION EFFECTIVE 26 JANUARY 2023

Location

FAA Identifier: X49
Lat/Long: 27-56-00.0890N 082-02-38.3060W
27-56.001483N 082-02.638433W
27.9333581,-82.0439739
(estimated)
Elevation: 110 ft. / 34 m (estimated)
Variation: 02W (1985)
From city: 1 mile S of LAKELAND, FL
Time zone: UTC -5 (UTC -4 during Daylight Saving Time)
Zip code: 33860

Airport Operations

Airport use: Open to the public
Activation date: 08/1965
Control tower: no
ARTCC: MIAMI CENTER
FSS: SAINT PETERSBURG FLIGHT SERVICE STATION
NOTAMs facility: PIE (NOTAM-D service available)
Attendance: UNATNDD ON CALL
CALL AIRPORT MANAGER (786) 873-8283 FOR ATTENDANCE.
Wind indicator: yes
Segmented circle: yes

Airport Communications

CTAF: 122.9
WX AWOS-3PT at LAL (4 nm N): PHONE 863-834-2030
WX AWOS-3 at PCM (7 nm NW): 120.025 (813-764-8259)
WX AWOS-3 at BOW (14 nm E): 123.775 (863-533-9004)
WX AWOS-3 at VDF (17 nm W): 121.125 (813-630-0924)
WX ASOS at GIF (17 nm NE): 133.675 (863-956-2097)
WX AWOS-3PT at ZPH (19 nm N): 118.975 (813-780-0031)

Nearby radio navigation aids

VOR radial/distance  VOR name  Freq  Var
LALr206/3.5LAKELAND VORTAC116.0001E
PIEr092/34.0ST PETERSBURG VORTAC116.4005W

Airport Services

Parking: hangars
Airframe service: NONE
Powerplant service: NONE
Bottled oxygen: NONE
Bulk oxygen: NONE

Runway Information

Runway 14/32

Dimensions: 2412 x 100 ft. / 735 x 30 m
Surface: turf, in good condition
TURF RYS MAY HOLD WATER AFTER RAIN.
Runway edge markings: 14/32 W PAILS OUTLINE LDG STRIP.
RUNWAY 14  RUNWAY 32
Traffic pattern: rightleft
Markings: NSTD, in good conditionNSTD, in good condition
Obstructions: 59 ft. tree, 1190 ft. from runway, 85 ft. right of centerline, 20:1 slope to clear
ROAD 100 FT RIGHT OF CNTRLN.
48 ft. tree, 960 ft. from runway, 85 ft. right of centerline, 20:1 slope to clear

Airport Ownership and Management from official FAA records

Ownership: Privately-owned
Owner: SOUTH LAKELAND AIRPORT, INC
813 S. 2ND STREET
LA CONNER, WA 98257-1409
Phone 408-316-7671
Manager: RAMON TORRES
SOUTH LAKELAND AIRPORT, 7500 CORONE ROAD
MULBERRY, FL 33860-8307
Phone 863-417-2177
SRY CTC: DACIA HSEUH (863)546-1569.

Airport Operational Statistics

Aircraft based on the field: 70
Single engine airplanes: 60
Multi engine airplanes: 3
Helicopters: 1
Ultralights: 5
Military aircraft: 1
    
Aircraft operations: avg 33/day *
83% local general aviation
17% transient general aviation
* for 12-month period ending 15 December 2017

Additional Remarks

RY 14/32 ROAD 97 FT TO 100 FT SOUTH OF CNTRLN AT FULL LEN OF RY
ARPT HAS NO NIGHT TIME OPERATIONS.
ULTRALIGHT ACTIVITY ON AND INVOF ARPT.
NO PPC OR GYRO OPNS WO WRITTEN PERMISSION FROM ARPT OWNER.
ARPT IS EMERG EVAC SITE. WATCH FOR EMERG ACFT AND VEHICLES ON RY AND INVOF ARPT.
NO SKYDIVING, PWR PARACHUTE OR GYRO OPS WO WRITTEN PMSN FROM ARPT OWNER.
FOR CD CTC TAMPA APCH AT 813-878-2528

Instrument Procedures

There are no published instrument procedures at X49.

Some nearby airports with instrument procedures:

KLAL - Lakeland Linder International Airport (4 nm N)
KPCM - Plant City Airport (7 nm NW)
KBOW - Bartow Executive Airport (14 nm E)
KVDF - Tampa Executive Airport (17 nm W)
KGIF - Winter Haven Regional Airport (17 nm NE)
KZPH - Zephyrhills Municipal Airport (19 nm N)
 
Loc | Ops | Rwys | IFR | FBO | Links
Com | Nav | Svcs | Stats | Notes


 
Area around X49 (South Lakeland Airport)
 
Road maps at: MapQuest Bing Google
 
Aerial photo
WARNING: Photo may not be current or correct
Aerial photo of X49 (South Lakeland Airport)
Photo by by Charles Proctor
Photo taken 11-Jan-2010
looking SW.

Do you have a better or more recent aerial photo of South Lakeland Airport that you would like to share? If so, please send us your photo.

 
Sectional chart

 
Airport distance calculator
Flying to South Lakeland Airport? Find the distance to fly.

From to X49

Sunrise and sunset
Times for 01-Feb-2023
 Local
(UTC-5)
 Zulu
(UTC)
Morning civil twilight06:5211:52
Sunrise07:1612:16
Sunset18:0723:07
Evening civil twilight18:3223:32

Current date and time
Zulu (UTC)  01-Feb-2023 14:01:01
Local (UTC-5)  01-Feb-2023 09:01:01
 
METAR
KLAL 
2nm NE 
011350Z 00000KT 7SM BKN026 18/18 A3024
KPCM 
8nm NW 
011335Z AUTO 00000KT 4SM HZ SCT001 OVC031 10/05 A3025 RMK AO2
KBOW 
15nm E 
011350Z VRB04KT 6SM HZ SCT010 20/18 A3024
KVDF 
17nm W 
011355Z AUTO 00000KT 5SM BR SCT003 OVC031 18/18 A3025 RMK AO2
KGIF 
18nm NE 
011353Z AUTO 35004KT 10SM CLR 20/19 A3025 RMK AO2 SLP240 T02000189
KZPH 
19nm N 
011335Z AUTO 00000KT 5SM BR SCT003 OVC060 17/17 A3025 RMK A02 T01690167
TAF
KLAL 
2nm NE 
011123Z 0112/0212 VRB02KT 3SM BR SCT002 BKN060 TEMPO 0112/0113 1SM BR BKN002 FM011500 26005KT P6SM SCT050 SCT250 FM020000 00000KT P6SM SKC FM020900 VRB02KT 5SM BR BKN030
NOTAMs
Click for the latest NOTAMs
NOTAMs are issued by the DoD/FAA and will open in a separate window not controlled by AirNav.

 

 
 

Would you like to see your business listed on this page?

 If your business provides an interesting product or service to pilots, flight crews, aircraft, or users of the South Lakeland Airport, you should consider listing it here.  To start the listing process, click on the button below
 
Add a business
 

Other Pages about South Lakeland Airport

Update a link
 
Copyright © AirNav, LLC. All rights reserved. Privacy Policy  Contact